Pascagoula, MS

3:14 PM CDT on July 23, 2017 (GMT -0500)
Lott International

Weather History for KPQL - December, 2012

Change the Weather History Date:

Friday, December 28, 2012

  Actual Average Record
Temperature  
Mean Temperature 52 °F -  
Max Temperature 66 °F 63 °F 77 °F (1971)
Min Temperature 37 °F 46 °F 21 °F (2010)
Degree Days  
Heating Degree Days 14    
Growing Degree Days 2 (Base 50)    
Moisture  
Dew Point 55 °F    
Average Humidity 86    
Maximum Humidity 94    
Minimum Humidity 72    
Precipitation  
Precipitation 0.41 in - - ()
Sea Level Pressure  
Sea Level Pressure 29.88 in    
Wind  
Wind Speed 7 mph (SE)    
Max Wind Speed 16 mph    
Max Gust Speed 26 mph    
Visibility 9 miles    
Events Rain    
Averages and records for this station are not official NWS values.
T = Trace of Precipitation, MM = Missing Value Source: NWS Daily Summary

Daily Weather History Graph

Daily Weather History Graph

Search for Another Location

Airport or City:

Trip Planner

Search our weather history database for the weather conditions in past years. The results will help you decide how hot, cold, wet, or windy it might be!

Date:

Astronomy

Dec. 28, 2012 Rise Set
Actual Time 6:50 AM CST 5:01 PM CST
Civil Twilight 6:23 AM CST 5:28 PM CST
Nautical Twilight 5:53 AM CST 5:58 PM CST
Astronomical Twilight 5:24 AM CST 6:27 PM CST
Moon 5:34 PM CST (12/28) 6:47 AM CST (12/28)
Length of Visible Light 11h 04m
Length of Day
10h 11m
Full, 100% of the Moon is Illuminated
Dec 28
Full
Jan 4
Last Quarter
Jan 11
New
Jan 18
First Quarter
Jan 26
Full

Hourly Weather History & Observations

Time (CST) Temp. Windchill Dew Point Humidity Pressure Visibility Wind Dir Wind Speed Gust Speed Precip Events Conditions
12:53 AM 37.0 °F - 35.1 °F 93% 30.08 in 5.0 mi Calm Calm - N/A   Clear
1:53 AM 42.1 °F 40.2 °F 37.9 °F 85% 30.07 in 10.0 mi East 3.5 mph - N/A   Clear
2:53 AM 42.1 °F 38.4 °F 37.9 °F 85% 30.05 in 10.0 mi East 5.8 mph - N/A   Clear
3:53 AM 43.0 °F 41.3 °F 37.9 °F 82% 30.04 in 10.0 mi ENE 3.5 mph - N/A   Mostly Cloudy
5:53 AM 46.0 °F 44.8 °F 41.0 °F 83% 30.01 in 10.0 mi East 3.5 mph - N/A   Scattered Clouds
6:53 AM 46.9 °F - 43.0 °F 86% 30.00 in 10.0 mi East 4.6 mph - N/A   Clear
7:53 AM 50.0 °F - 45.0 °F 83% 29.99 in 10.0 mi East 5.8 mph - N/A   Overcast
8:53 AM 55.9 °F - 48.0 °F 75% 29.98 in 10.0 mi ESE 9.2 mph - N/A   Overcast
9:53 AM 60.1 °F - 52.0 °F 75% 29.99 in 10.0 mi SE 6.9 mph - N/A   Overcast
10:51 AM 62.6 °F - 53.6 °F 72% 29.95 in 10.0 mi SE 13.8 mph 20.7 mph N/A   Overcast
10:53 AM 63.0 °F - 54.0 °F 72% 29.95 in 10.0 mi SE 12.7 mph 20.7 mph N/A   Overcast
11:53 AM 64.9 °F - 55.9 °F 73% 29.90 in 10.0 mi SE 11.5 mph - N/A   Overcast
12:53 PM 64.0 °F - 57.0 °F 78% 29.86 in 10.0 mi SE 11.5 mph - N/A   Overcast
1:53 PM 63.0 °F - 57.9 °F 84% 29.84 in 10.0 mi SE 9.2 mph - 0.00 in Rain Light Rain
2:53 PM 63.0 °F - 57.9 °F 84% 29.82 in 10.0 mi SE 9.2 mph - 0.00 in   Overcast
3:53 PM 63.0 °F - 59.0 °F 87% 29.80 in 10.0 mi SE 11.5 mph - N/A   Overcast
4:53 PM 66.0 °F - 61.0 °F 84% 29.78 in 10.0 mi SSE 13.8 mph - N/A   Overcast
5:41 PM 66.2 °F - 62.6 °F 88% 29.75 in 10.0 mi SSE 11.5 mph 26.5 mph 0.00 in   Overcast
5:53 PM 66.0 °F - 63.0 °F 90% 29.74 in 10.0 mi SSE 13.8 mph 24.2 mph 0.00 in   Overcast
6:53 PM 66.9 °F - 64.9 °F 93% 29.74 in 7.0 mi South 16.1 mph 23.0 mph 0.02 in Rain Light Rain
7:05 PM 66.2 °F - 64.4 °F 94% 29.74 in 5.0 mi South 15.0 mph 26.5 mph 0.02 in Rain Rain
7:36 PM 66.2 °F - 64.4 °F 94% 29.79 in 1.8 mi West 8.1 mph 18.4 mph 0.21 in Rain Heavy Rain
7:53 PM 64.9 °F - 63.0 °F 93% 29.79 in 2.0 mi West 5.8 mph - 0.38 in Rain Heavy Rain
7:57 PM 64.4 °F - 62.6 °F 94% 29.78 in 3.0 mi West 6.9 mph - 0.00 in Rain Rain
8:53 PM 64.0 °F - 62.1 °F 93% 29.79 in 10.0 mi West 4.6 mph - 0.01 in   Overcast
9:53 PM 63.0 °F - 61.0 °F 93% 29.81 in 10.0 mi West 4.6 mph - N/A   Overcast
10:09 PM 62.6 °F - 60.8 °F 94% 29.81 in 10.0 mi Variable 3.5 mph - N/A   Overcast
10:42 PM 62.6 °F - 60.8 °F 94% 29.82 in 10.0 mi NW 11.5 mph 23.0 mph N/A   Overcast
10:53 PM 62.1 °F - 59.0 °F 90% 29.83 in 10.0 mi NW 10.4 mph 21.9 mph N/A   Overcast
11:34 PM 60.8 °F - 55.4 °F 82% 29.85 in 10.0 mi NW 8.1 mph 19.6 mph N/A   Overcast
11:53 PM 57.0 °F - 54.0 °F 89% 29.88 in 10.0 mi NW 13.8 mph 23.0 mph N/A   Overcast